[[{"header":{"parameterUnit":"m.s-1","parameterCategory":1,"la1":30.2991,"la2":30.254,"lo1":-89.0895,"lo2":-89.0444,"dy":0.0017,"dx":0.0017,"nx":28,"ny":28,"refTime":"2024-05-08T21:00:00:Z","depth":0,"parameterNumber":2,"parameterNumberName":"U-component_of_WINDS"},"data":[0,0,0,0,0,0,0,0,0,0,0,0,0,0,0,0,0,0,0,0,0,0,0,0,0,0,0,0,0,0,0,0,0,0,0,0,0,0,0,0,0,0,0,0,0,0,0,0,0,0,0,0,0,0,0,0,0,0,-1.8948,-1.8948,0,-1.8911,-1.891,-1.891,-1.8872,-1.8872,-1.8871,-1.8871,-1.8832,-1.8832,-1.8831,0,0,0,0,0,0,0,0,0,0,0,0,0,-1.8988,-1.8988,-1.8948,-1.8948,-1.8947,-1.8911,-1.891,-1.891,-1.8872,-1.8872,-1.8871,-1.8871,-1.8832,-1.8832,-1.8831,0,0,0,0,0,0,0,0,0,0,0,0,0,-1.8963,-1.8987,-1.8948,-1.8924,-1.8922,-1.8911,-1.891,-1.891,-1.8872,-1.8872,-1.8871,-1.887,-1.8833,-1.8832,-1.8831,-1.8841,0,0,-1.8828,-1.8828,0,0,0,0,0,0,0,0,-1.8964,-1.8961,-1.8928,-1.8926,-1.8923,-1.8895,-1.891,-1.8886,-1.8873,-1.8891,-1.8871,-1.887,-1.8854,-1.8851,-1.8846,-1.8839,-1.8837,-1.8828,-1.8828,-1.8827,-1.8827,0,0,0,0,0,0,0,-1.8966,-1.8963,-1.8933,-1.8928,-1.8925,-1.8915,-1.8911,-1.8905,-1.8877,-1.8889,-1.8887,-1.8883,-1.8852,-1.8847,-1.8845,-1.8837,-1.8828,-1.8828,-1.8827,-1.8827,-1.8837,-1.8838,0,0,0,0,0,0,-1.8971,-1.8964,-1.8934,-1.8932,-1.8942,-1.8915,-1.891,-1.8905,-1.8877,-1.8872,-1.8883,-1.8881,-1.8848,-1.8846,-1.8843,-1.8853,-1.8827,-1.8827,-1.8826,-1.8836,-1.8837,-1.8838,0,0,0,0,0,0,-1.8972,-1.8969,-1.8936,-1.8948,-1.8943,-1.8915,-1.891,-1.8905,-1.8899,-1.8873,-1.8867,-1.8883,-1.8848,-1.8844,-1.8842,-1.8851,-1.8826,-1.8825,-1.8835,-1.8836,-1.8837,-1.8873,0,0,0,0,0,0,-1.8974,-1.897,-1.8973,-1.8948,-1.8942,-1.8935,-1.891,-1.8904,-1.8898,-1.8894,-1.8871,-1.8866,-1.8847,-1.8843,-1.8841,-1.8849,-1.8825,-1.8834,-1.8836,-1.8837,-1.8871,-1.8875,-1.8879,0,0,0,0,0,-1.8975,-1.8984,-1.8973,-1.897,-1.8946,-1.8936,-1.8933,-1.891,-1.8899,-1.8902,-1.8885,-1.8867,-1.8851,-1.8843,-1.884,-1.8849,-1.8833,-1.8835,-1.8837,-1.8869,-1.8874,-1.8879,0,0,0,0,0,0,-1.9011,-1.898,-1.8968,-1.8969,-1.8955,-1.893,-1.8933,-1.8917,-1.8906,-1.8903,-1.8876,-1.8871,-1.8872,-1.886,-1.8853,-1.8857,-1.884,-1.8841,-1.8865,-1.887,-1.8874,-1.8876,-1.8824,0,0,0,0,0,-1.9019,-1.9013,-1.8987,-1.8991,-1.8984,-1.896,-1.8955,-1.8939,-1.8924,-1.8918,-1.8901,-1.8887,-1.8878,-1.8873,-1.8864,-1.8869,-1.8863,-1.8874,-1.8878,-1.8881,-1.8882,-1.8884,-1.8888,-1.8844,-1.8844,-1.8844,0,0,-1.9035,-1.9018,-1.9016,-1.8997,-1.8985,-1.898,-1.8955,-1.8951,-1.8947,-1.8917,-1.8914,-1.8901,-1.8883,-1.8885,-1.8884,-1.8875,-1.8894,-1.8883,-1.8886,-1.8885,-1.8886,-1.8891,-1.8895,-1.8845,-1.8845,-1.8844,0,0,-1.9062,-1.9049,-1.905,-1.9038,-1.902,-1.9004,-1.9004,-1.8981,-1.8972,-1.8968,-1.8945,-1.8941,-1.8927,-1.8916,-1.8908,-1.8932,-1.8915,-1.893,-1.8951,-1.8953,-1.8957,-1.896,-1.8969,-1.8972,-1.8932,-1.8932,-1.8932,0,-1.9085,-1.9076,-1.9053,-1.905,-1.9043,-1.9016,-1.9018,-1.9007,-1.8987,-1.8983,-1.8972,-1.8955,-1.8942,-1.894,-1.8946,-1.8941,-1.8941,-1.8932,-1.8958,-1.8961,-1.8964,-1.8971,-1.8975,-1.8934,-1.8933,-1.8933,-1.8933,0,-1.9105,-1.91,-1.9103,-1.9084,-1.9078,-1.9077,-1.9054,-1.905,-1.9035,-1.902,-1.9017,-1.9,-1.8987,-1.8986,-1.8972,-1.8983,-1.8977,-1.8963,-1.8945,-1.897,-1.8977,-1.898,-1.8936,-1.8936,-1.8935,-1.8935,0,0,-1.9153,-1.9122,-1.9123,-1.9115,-1.9093,-1.9088,-1.9087,-1.9075,-1.9072,-1.9059,-1.9057,-1.9047,-1.9034,-1.9025,-1.9009,-1.9012,-1.9032,-1.8997,-1.8996,-1.9004,-1.9044,-1.9054,-1.9058,-1.9021,-1.9022,-1.9022,-1.9045,0,-1.9176,-1.9171,-1.9151,-1.9153,-1.9147,-1.9122,-1.9121,-1.9108,-1.9094,-1.9088,-1.9073,-1.9066,-1.905,-1.9044,-1.9046,-1.903,-1.904,-1.9028,-1.9019,-1.9019,-1.9024,-1.9062,-1.9073,-1.9096,-1.9048,-1.9048,-1.9049,0,-1.9202,-1.9191,-1.9193,-1.9171,-1.9168,-1.9168,-1.9155,-1.915,-1.9134,-1.9124,-1.9116,-1.9098,-1.9095,-1.9079,-1.9075,-1.9068,-1.9063,-1.9055,-1.9055,-1.9053,-1.9035,-1.9061,-1.9102,-1.9106,-1.9053,-1.9052,-1.9052,0,-1.9237,-1.9223,-1.9221,-1.9215,-1.919,-1.919,-1.918,-1.9164,-1.9158,-1.9147,-1.9143,-1.9133,-1.9127,-1.9119,-1.9099,-1.9089,-1.9098,-1.908,-1.909,-1.909,-1.9092,-1.9092,-1.9133,-1.909,-1.909,-1.909,-1.909,0,-1.9265,-1.9267,-1.9237,-1.9236,-1.9237,-1.9214,-1.9216,-1.9204,-1.919,-1.9187,-1.9165,-1.9162,-1.9136,-1.9131,-1.9115,-1.9115,-1.9113,-1.9105,-1.91,-1.9106,-1.9107,-1.9103,-1.91,-1.9091,-1.9091,-1.909,-1.909,0,-1.9304,-1.9284,-1.9281,-1.9258,-1.9252,-1.9254,-1.9234,-1.9233,-1.9219,-1.9215,-1.9213,-1.919,-1.9182,-1.9162,-1.915,-1.9139,-1.9143,-1.9135,-1.9148,-1.9146,-1.9157,-1.9156,-1.9196,-1.92,-1.9155,-1.9155,-1.9156,0,-1.9323,-1.9323,-1.9301,-1.9297,-1.9287,-1.9281,-1.9275,-1.9253,-1.9248,-1.9231,-1.9232,-1.9223,-1.9214,-1.9204,-1.9186,-1.9177,-1.9169,-1.9183,-1.9167,-1.9173,-1.9169,-1.9169,-1.9169,-1.9187,-1.9187,-1.9188,-1.9188,0,-1.9359,-1.9349,-1.9341,-1.933,-1.9323,-1.9313,-1.9302,-1.9301,-1.9275,-1.9271,-1.9263,-1.9256,-1.9244,-1.9235,-1.9223,-1.9213,-1.9197,-1.9194,-1.9195,-1.9201,-1.9209,-1.9205,-1.9158,-1.9193,-1.9192,-1.9192,-1.9192,-1.9191,-1.9388,-1.9388,-1.9372,-1.9364,-1.9353,-1.9343,-1.9341,-1.9326,-1.9319,-1.9307,-1.9294,-1.9288,-1.9274,-1.9256,-1.9247,-1.9242,-1.9233,-1.9236,-1.9236,-1.9237,-1.924,-1.921,-1.924,-1.9239,-1.9239,-1.9239,-1.9239,0,-1.9423,-1.9411,-1.9404,-1.939,-1.9383,-1.9369,-1.9356,-1.9352,-1.9347,-1.9334,-1.9326,-1.9318,-1.931,-1.9292,-1.9282,-1.9282,-1.9274,-1.928,-1.928,-1.9278,-1.9248,-1.9248,-1.9286,-1.9286,-1.9286,-1.9286,-1.9286,-1.9286,-1.944,-1.9439,-1.9427,-1.9421,-1.9409,-1.9403,-1.9397,-1.9388,-1.9378,-1.9369,-1.9362,-1.9351,-1.9336,-1.9326,-1.9318,-1.9313,-1.931,-1.9319,-1.9311,-1.9284,-1.928,-1.9275,-1.9275,-1.9318,-1.9318,-1.9341,-1.9341,-1.9341]},{"header":{"parameterUnit":"m.s-1","parameterCategory":1,"la1":30.2991,"la2":30.254,"lo1":-89.0895,"lo2":-89.0444,"dy":0.0017,"dx":0.0017,"nx":28,"ny":28,"refTime":"2024-05-08T21:00:00:Z","depth":0,"parameterNumber":3,"parameterNumberName":"V-component_of_WINDS"},"data":[0,0,0,0,0,0,0,0,0,0,0,0,0,0,0,0,0,0,0,0,0,0,0,0,0,0,0,0,0,0,0,0,0,0,0,0,0,0,0,0,0,0,0,0,0,0,0,0,0,0,0,0,0,0,0,0,0,0,6.6443,6.6443,0,6.6463,6.6463,6.6463,6.6462,6.6462,6.6462,6.6462,6.6478,6.6479,6.6479,0,0,0,0,0,0,0,0,0,0,0,0,0,6.6402,6.6402,6.6443,6.6443,6.6444,6.6463,6.6463,6.6463,6.6462,6.6462,6.6462,6.6461,6.6478,6.6479,6.6479,0,0,0,0,0,0,0,0,0,0,0,0,0,6.642,6.6403,6.6443,6.6445,6.6446,6.6463,6.6463,6.6464,6.6462,6.6462,6.6462,6.6461,6.6477,6.6478,6.6479,6.6494,0,0,6.6483,6.6483,0,0,0,0,0,0,0,0,6.6419,6.6422,6.6445,6.6445,6.6446,6.646,6.6455,6.6474,6.6463,6.6456,6.6462,6.6461,6.6472,6.6473,6.6478,6.6495,6.6496,6.6483,6.6483,6.6484,6.6484,0,0,0,0,0,0,0,6.6418,6.6421,6.6451,6.6445,6.6446,6.6445,6.6447,6.6458,6.6466,6.6457,6.6457,6.6459,6.6472,6.6477,6.6478,6.6496,6.6483,6.6484,6.6484,6.6485,6.6528,6.6528,0,0,0,0,0,0,6.6417,6.642,6.645,6.6451,6.6431,6.6446,6.6448,6.6456,6.6466,6.6467,6.6459,6.6459,6.6475,6.6477,6.6479,6.6498,6.6484,6.6485,6.6485,6.6527,6.6528,6.6528,0,0,0,0,0,0,6.6416,6.6419,6.6449,6.6436,6.6439,6.6447,6.6455,6.6456,6.6461,6.6468,6.6469,6.6463,6.6475,6.6477,6.6491,6.6498,6.6485,6.6486,6.6526,6.6527,6.6528,6.6535,0,0,0,0,0,0,6.6414,6.6419,6.6425,6.6436,6.644,6.6462,6.6456,6.6457,6.6463,6.6463,6.6472,6.6473,6.6475,6.649,6.6492,6.6499,6.6487,6.6526,6.6527,6.6528,6.6534,6.6536,6.6537,0,0,0,0,0,6.6413,6.6425,6.6425,6.6429,6.6448,6.6462,6.6465,6.6468,6.6464,6.647,6.6475,6.6473,6.6497,6.6491,6.6494,6.6502,6.6525,6.6526,6.6528,6.6533,6.6536,6.6537,0,0,0,0,0,0,6.6412,6.6426,6.6427,6.6443,6.6452,6.6462,6.6469,6.647,6.6479,6.6478,6.6481,6.6483,6.6496,6.65,6.6493,6.6517,6.6511,6.6512,6.6514,6.6516,6.6518,6.6516,6.6488,0,0,0,0,0,6.6414,6.6426,6.6437,6.645,6.6455,6.6461,6.6468,6.647,6.6478,6.6482,6.6487,6.6495,6.6505,6.6511,6.652,6.6535,6.6537,6.6542,6.6544,6.6545,6.6546,6.6556,6.6558,6.6532,6.6532,6.6532,0,0,6.6418,6.6427,6.6433,6.645,6.6457,6.6468,6.6464,6.6476,6.6484,6.6483,6.6497,6.6501,6.651,6.6525,6.6532,6.6529,6.6554,6.6546,6.6547,6.6548,6.6557,6.656,6.6562,6.6533,6.6533,6.6533,0,0,6.643,6.6438,6.6451,6.6459,6.6471,6.6476,6.6479,6.649,6.6494,6.6508,6.6508,6.6517,6.6533,6.654,6.6546,6.6564,6.6562,6.6566,6.6575,6.6584,6.6586,6.6588,6.6595,6.6597,6.6568,6.6568,6.6568,0,6.6433,6.6451,6.6457,6.6469,6.6477,6.6479,6.6491,6.6498,6.6512,6.6517,6.6513,6.6535,6.6541,6.6558,6.6563,6.6567,6.6571,6.6565,6.6586,6.6587,6.6589,6.6596,6.6598,6.6568,6.6568,6.6568,6.6568,0,6.6454,6.6467,6.6475,6.6491,6.6499,6.6511,6.6519,6.6527,6.6529,6.6534,6.6549,6.6557,6.6568,6.6572,6.6573,6.659,6.6588,6.6585,6.6578,6.6592,6.6598,6.6601,6.6569,6.6569,6.6569,6.6569,0,0,6.6464,6.6485,6.6488,6.6496,6.6511,6.652,6.6533,6.6546,6.6553,6.6563,6.6573,6.6588,6.6587,6.6593,6.6595,6.6603,6.6618,6.66,6.66,6.6603,6.6638,6.664,6.6642,6.6618,6.6618,6.6619,6.6637,0,6.6478,6.6503,6.651,6.653,6.6543,6.6546,6.6557,6.6567,6.6573,6.6583,6.6589,6.66,6.6596,6.6601,6.6609,6.6615,6.6625,6.6613,6.6627,6.6627,6.6625,6.6646,6.6647,6.6664,6.6639,6.664,6.664,0,6.6498,6.6511,6.6533,6.6548,6.6554,6.6564,6.6577,6.6588,6.6599,6.6603,6.6611,6.6613,6.6626,6.662,6.6638,6.663,6.6636,6.664,6.6641,6.6642,6.6634,6.6647,6.667,6.6672,6.6644,6.6644,6.6643,0,6.6504,6.6527,6.6544,6.655,6.6568,6.6575,6.6583,6.6594,6.6602,6.6613,6.6619,6.6631,6.6637,6.6647,6.6652,6.6647,6.667,6.6664,6.6673,6.6673,6.6677,6.6676,6.6701,6.6681,6.6681,6.6681,6.6681,0,6.6519,6.6533,6.6547,6.6557,6.6573,6.6581,6.6596,6.6603,6.6613,6.6625,6.6628,6.6638,6.6644,6.6655,6.6659,6.6674,6.6677,6.668,6.6681,6.668,6.6679,6.6683,6.6682,6.6682,6.6682,6.6681,6.6681,0,6.6528,6.6538,6.6557,6.6574,6.6578,6.6589,6.6602,6.6612,6.6619,6.6633,6.6637,6.6647,6.6661,6.6667,6.6683,6.6686,6.6703,6.6703,6.67,6.67,6.6709,6.6708,6.6736,6.674,6.6718,6.6718,6.6719,0,6.6537,6.6548,6.6567,6.6576,6.6584,6.6598,6.6607,6.6615,6.6625,6.664,6.6648,6.6662,6.6674,6.6695,6.6703,6.6715,6.6716,6.6725,6.6717,6.6716,6.6716,6.6715,6.6717,6.6726,6.6726,6.6726,6.6726,0,6.6551,6.6557,6.6571,6.6588,6.6599,6.6612,6.6624,6.6631,6.6641,6.6652,6.6667,6.6676,6.6694,6.6708,6.6721,6.6728,6.6729,6.6729,6.6732,6.673,6.6728,6.673,6.6703,6.6728,6.6728,6.6728,6.6728,6.6727,6.6561,6.6571,6.6587,6.6603,6.6614,6.6627,6.6637,6.6647,6.666,6.6677,6.6681,6.6697,6.6709,6.6728,6.6735,6.6747,6.6744,6.6748,6.6749,6.675,6.6751,6.6727,6.6749,6.6749,6.6749,6.6749,6.6749,0,6.6576,6.6587,6.6602,6.6621,6.6634,6.6636,6.6651,6.6661,6.6675,6.6688,6.67,6.6718,6.6732,6.6742,6.6756,6.6764,6.6765,6.6767,6.6767,6.6768,6.6752,6.6748,6.6767,6.6767,6.6767,6.6767,6.6767,6.6767,6.6585,6.6604,6.6612,6.6636,6.6647,6.6664,6.6672,6.6684,6.6694,6.6714,6.6727,6.6734,6.6746,6.6761,6.6774,6.6777,6.6782,6.6784,6.6787,6.6771,6.6769,6.6767,6.6764,6.6785,6.6786,6.6802,6.6802,6.6803]}]]